Погода в Недогарках

Украина / Кировоградская область     48°47′03″N   33°15′40″E
темп.,
°C
ветер,
м/с
пор.,
м/с
влажн.,
%
обл.,
%
осадки,
мм/ч
давл.,
гПа
погр.,
м
23 октября, сб
сб2300:00+12зюз2257100 0.0 101410
03:00+10зюз356074 0.0 101461
06:00+10зсз3661100 0.0 101595
09:00+11з3761100 0.0 1016253
12:00+13зюз4652100 0.0 1017481
15:00+13з695048 0.0 10171341
18:00+10з475831 0.0 1018117
21:00+8сз34565 0.0 102048
24 октября, вс
вс2400:00+6зсз34565 0.0 102147
03:00+5зсз3561100 0.0 102284
06:00+4зсз4971100 0.0 1022193
09:00+5зсз48665 0.0 1024363
12:00+9сз67545 0.0 10241187
15:00+10сз795268 0.2 10231592
18:00+7ссз71063100 0.1 10251526
21:00+5ссз71070100 0.1 1027992
25 октября, пн
пн2500:00+4ссз6106352 0.1 1028642
03:00+3ссз510645 0.1 1029381
06:00+2с49685 0.0 1031285
09:00+3с48635 0.0 1032582
12:00+6с45485 0.0 1033957
15:00+7с44410 0.0 10331052
18:00+4ссз33530 0.0 103342
21:00+2с11570 0.0 103410
26 октября, вт
вт2600:00+2вюв11564 0.0 103410
03:00+1ююв22570 0.0 103410
06:000ююв22610 0.0 103412
09:00+2ююв34502 0.0 1034137
12:00+8ю45310 0.0 1033689
15:00+10ю45240 0.0 1031915
18:00+6ююв33350 0.0 103027
21:00+4ю35400 0.0 103077
27 октября, ср
ср2700:00+3ю46430 0.0 103084
03:00+1ю46495 0.0 102984
06:000ююз336981 0.0 102836
09:00+3ююв465772 0.0 1028166
12:00+9ю4542100 0.0 1026591
15:00+10юз3436100 0.0 1024835
18:00+7з3347100 0.0 102429
21:00+6з3454100 0.0 102462